Time,TemperatureF,DewpointF,PressureIn,WindDirection,WindDirectionDegrees,WindSpeedMPH,WindSpeedGustMPH,Humidity,HourlyPrecipIn,Conditions,Clouds,dailyrainin,SoftwareType,DateUTC
2013-03-27 00:00:00,42.3,25.9,29.92,WNW,292,8.0,23.0,52,0.00,OVC,OVC,0.00,WeatherDisplay:10.31,2013-03-27 04:00:00,
2013-03-27 00:05:00,42.2,25.8,29.92,WNW,295,7.0,18.0,52,0.00,OVC,OVC,0.00,WeatherDisplay:10.31,2013-03-27 04:05:00,
2013-03-27 00:10:00,42.2,26.3,29.92,WNW,295,12.0,18.0,53,0.00,OVC,OVC,0.00,WeatherDisplay:10.31,2013-03-27 04:10:00,
2013-03-27 00:20:00,42.1,26.2,29.92,WNW,300,7.0,14.0,53,0.00,OVC,OVC,0.00,WeatherDisplay:10.31,2013-03-27 04:20:00,
2013-03-27 00:30:00,41.9,26.0,29.92,WNW,297,9.0,21.0,53,0.00,OVC,OVC,0.00,WeatherDisplay:10.31,2013-03-27 04:30:00,
2013-03-27 00:40:00,41.6,26.2,29.92,WNW,292,6.0,16.0,54,0.00,OVC,OVC,0.00,WeatherDisplay:10.31,2013-03-27 04:40:00,
2013-03-27 00:50:00,41.4,26.4,29.92,WNW,292,6.0,15.0,55,0.00,OVC,OVC,0.00,WeatherDisplay:10.31,2013-03-27 04:50:00,
2013-03-27 01:00:00,41.2,26.7,29.92,WNW,292,7.0,14.0,56,0.00,OVC,OVC,0.00,WeatherDisplay:10.31,2013-03-27 05:00:00,
2013-03-27 01:05:00,41.1,27.0,29.92,WNW,289,6.0,16.0,57,0.00,OVC,OVC,0.00,WeatherDisplay:10.31,2013-03-27 05:05:00,
2013-03-27 01:10:00,41.1,27.0,29.92,WNW,294,10.0,20.0,57,0.00,OVC,OVC,0.00,WeatherDisplay:10.31,2013-03-27 05:10:00,
2013-03-27 01:15:00,41.0,26.9,29.93,WNW,294,9.0,17.0,57,0.00,OVC,OVC,0.00,WeatherDisplay:10.31,2013-03-27 05:15:00,
2013-03-27 01:25:00,40.9,26.8,29.93,WNW,299,8.0,20.0,57,0.00,OVC,OVC,0.00,WeatherDisplay:10.31,2013-03-27 05:25:00,
2013-03-27 01:30:00,40.8,27.2,29.93,WNW,297,5.0,14.0,58,0.00,OVC,OVC,0.00,WeatherDisplay:10.31,2013-03-27 05:30:00,
2013-03-27 01:40:00,40.6,26.9,29.93,WNW,295,7.0,12.0,58,0.00,OVC,OVC,0.00,WeatherDisplay:10.31,2013-03-27 05:40:00,
2013-03-27 01:50:00,40.3,27.1,29.93,WNW,292,7.0,15.0,59,0.00,OVC,OVC,0.00,WeatherDisplay:10.31,2013-03-27 05:50:00,
2013-03-27 01:55:00,40.3,27.1,29.93,WNW,294,10.0,16.0,59,0.00,OVC,OVC,0.00,WeatherDisplay:10.31,2013-03-27 05:55:00,
2013-03-27 02:00:00,40.2,27.0,29.93,WNW,292,8.0,17.0,59,0.00,OVC,OVC,0.00,WeatherDisplay:10.31,2013-03-27 06:00:00,
2013-03-27 02:10:00,40.2,27.0,29.93,WNW,301,5.0,20.0,59,0.00,OVC,OVC,0.00,WeatherDisplay:10.31,2013-03-27 06:10:00,
2013-03-27 02:20:00,40.1,27.3,29.93,WNW,294,12.0,20.0,60,0.00,OVC,OVC,0.00,WeatherDisplay:10.31,2013-03-27 06:20:00,
2013-03-27 02:30:00,39.9,27.1,29.93,WNW,295,5.0,18.0,60,0.00,OVC,OVC,0.00,WeatherDisplay:10.31,2013-03-27 06:30:00,
2013-03-27 02:40:00,39.8,27.0,29.93,WNW,291,6.0,15.0,60,0.00,OVC,OVC,0.00,WeatherDisplay:10.31,2013-03-27 06:40:00,
2013-03-27 02:50:00,39.6,26.8,29.93,WNW,289,6.0,16.0,60,0.00,OVC,OVC,0.00,WeatherDisplay:10.31,2013-03-27 06:50:00,
2013-03-27 03:00:00,39.5,27.2,29.93,West,279,2.0,12.0,61,0.00,OVC,OVC,0.00,WeatherDisplay:10.31,2013-03-27 07:00:00,
2013-03-27 03:05:00,39.5,27.2,29.93,WNW,288,6.0,14.0,61,0.00,OVC,OVC,0.00,WeatherDisplay:10.31,2013-03-27 07:05:00,
2013-03-27 03:10:00,39.3,27.0,29.93,WNW,290,5.0,10.0,61,0.00,OVC,OVC,0.00,WeatherDisplay:10.31,2013-03-27 07:10:00,
2013-03-27 03:20:00,39.2,26.9,29.93,WNW,292,3.0,7.0,61,0.00,OVC,OVC,0.00,WeatherDisplay:10.31,2013-03-27 07:20:00,
2013-03-27 03:30:00,38.9,27.0,29.93,WNW,291,3.0,12.0,62,0.00,OVC,OVC,0.00,WeatherDisplay:10.31,2013-03-27 07:30:00,
2013-03-27 03:40:00,38.8,26.9,29.94,WNW,283,2.0,10.0,62,0.00,OVC,OVC,0.00,WeatherDisplay:10.31,2013-03-27 07:40:00,
2013-03-27 03:45:00,38.8,26.9,29.94,West,278,6.0,12.0,62,0.00,OVC,OVC,0.00,WeatherDisplay:10.31,2013-03-27 07:45:00,
2013-03-27 03:55:00,38.8,26.9,29.94,WNW,296,3.0,9.0,62,0.00,OVC,OVC,0.00,WeatherDisplay:10.31,2013-03-27 07:55:00,
2013-03-27 04:00:00,38.8,26.9,29.94,WNW,282,3.0,8.0,62,0.00,OVC,OVC,0.00,WeatherDisplay:10.31,2013-03-27 08:00:00,
2013-03-27 04:05:00,38.8,26.9,29.94,West,269,2.0,12.0,62,0.00,OVC,OVC,0.00,WeatherDisplay:10.31,2013-03-27 08:05:00,
2013-03-27 04:15:00,38.6,26.7,29.94,West,272,2.0,8.0,62,0.00,OVC,OVC,0.00,WeatherDisplay:10.31,2013-03-27 08:15:00,
2013-03-27 04:20:00,38.6,27.1,29.94,WNW,283,5.0,7.0,63,0.00,OVC,OVC,0.00,WeatherDisplay:10.31,2013-03-27 08:20:00,
2013-03-27 04:30:00,38.5,27.0,29.94,WNW,292,5.0,6.0,63,0.00,OVC,OVC,0.00,WeatherDisplay:10.31,2013-03-27 08:30:00,
2013-03-27 04:35:00,38.5,27.0,29.94,WNW,282,3.0,5.0,63,0.00,OVC,OVC,0.00,WeatherDisplay:10.31,2013-03-27 08:35:00,
2013-03-27 04:40:00,38.3,26.8,29.94,WSW,251,2.0,7.0,63,0.00,OVC,OVC,0.00,WeatherDisplay:10.31,2013-03-27 08:40:00,
2013-03-27 04:50:00,38.2,26.7,29.94,WSW,239,5.0,7.0,63,0.00,OVC,OVC,0.00,WeatherDisplay:10.31,2013-03-27 08:50:00,
2013-03-27 05:00:00,38.0,26.5,29.95,West,278,8.0,14.0,63,0.00,OVC,OVC,0.00,WeatherDisplay:10.31,2013-03-27 09:00:00,
2013-03-27 05:10:00,37.9,26.8,29.95,WNW,293,5.0,12.0,64,0.00,OVC,OVC,0.00,WeatherDisplay:10.31,2013-03-27 09:10:00,
2013-03-27 05:20:00,37.8,26.7,29.95,WNW,293,8.0,14.0,64,0.00,OVC,OVC,0.00,WeatherDisplay:10.31,2013-03-27 09:20:00,
2013-03-27 05:30:00,37.8,26.7,29.95,WNW,292,8.0,20.0,64,0.00,OVC,OVC,0.00,WeatherDisplay:10.31,2013-03-27 09:30:00,
2013-03-27 05:40:00,37.8,26.3,29.95,WNW,291,5.0,10.0,63,0.00,OVC,OVC,0.00,WeatherDisplay:10.31,2013-03-27 09:40:00,
2013-03-27 05:50:00,37.6,26.1,29.95,WNW,295,7.0,16.0,63,0.00,OVC,OVC,0.00,WeatherDisplay:10.31,2013-03-27 09:50:00,
2013-03-27 05:55:00,37.6,26.1,29.95,WNW,293,9.0,14.0,63,0.00,OVC,OVC,0.00,WeatherDisplay:10.31,2013-03-27 09:55:00,
2013-03-27 06:00:00,37.6,25.7,29.95,WNW,289,6.0,18.0,62,0.00,OVC,OVC,0.00,WeatherDisplay:10.31,2013-03-27 10:00:00,
2013-03-27 06:05:00,37.6,25.7,29.95,WNW,292,5.0,14.0,62,0.00,OVC,OVC,0.00,WeatherDisplay:10.31,2013-03-27 10:05:00,
2013-03-27 06:10:00,37.6,25.7,29.96,WNW,287,10.0,17.0,62,0.00,OVC,OVC,0.00,WeatherDisplay:10.31,2013-03-27 10:10:00,
2013-03-27 06:20:00,37.5,25.7,29.96,WNW,288,6.0,16.0,62,0.00,OVC,OVC,0.00,WeatherDisplay:10.31,2013-03-27 10:20:00,
2013-03-27 06:30:00,37.5,25.7,29.96,WNW,288,8.0,20.0,62,0.00,OVC,OVC,0.00,WeatherDisplay:10.31,2013-03-27 10:30:00,
2013-03-27 06:40:00,37.3,25.8,29.97,WNW,290,12.0,17.0,63,0.00,OVC,OVC,0.00,WeatherDisplay:10.31,2013-03-27 10:40:00,
2013-03-27 06:50:00,37.2,26.1,29.97,WNW,286,5.0,12.0,64,0.00,OVC,OVC,0.00,WeatherDisplay:10.31,2013-03-27 10:50:00,
2013-03-27 07:00:00,37.0,25.9,29.97,WNW,287,9.0,18.0,64,0.00,OVC,OVC,0.00,WeatherDisplay:10.31,2013-03-27 11:00:00,
2013-03-27 07:05:00,37.0,25.9,29.97,WNW,284,9.0,20.0,64,0.00,CLR,CLR,0.00,WeatherDisplay:10.31,2013-03-27 11:05:00,
2013-03-27 07:10:00,37.0,25.9,29.97,WNW,285,10.0,17.0,64,0.00,SCT,SCT,0.00,WeatherDisplay:10.31,2013-03-27 11:10:00,
2013-03-27 07:20:00,37.0,25.9,29.97,West,281,9.0,17.0,64,0.00,BKN,BKN,0.00,WeatherDisplay:10.31,2013-03-27 11:20:00,
2013-03-27 07:30:00,37.2,25.8,29.98,WNW,292,17.0,24.0,63,0.00,FEW,FEW,0.00,WeatherDisplay:10.31,2013-03-27 11:30:00,
2013-03-27 07:40:00,37.6,25.7,29.98,WNW,290,20.0,25.0,62,0.00,FEW,FEW,0.00,WeatherDisplay:10.31,2013-03-27 11:40:00,
2013-03-27 07:50:00,38.0,25.3,29.98,WNW,290,12.0,24.0,60,0.00,CLR,CLR,0.00,WeatherDisplay:10.31,2013-03-27 11:50:00,
2013-03-27 08:00:00,38.3,25.2,29.99,WNW,290,9.0,26.0,59,0.00,CLR,CLR,0.00,WeatherDisplay:10.31,2013-03-27 12:00:00,
2013-03-27 08:05:00,38.5,25.4,29.99,WNW,294,17.0,22.0,59,0.00,CLR,CLR,0.00,WeatherDisplay:10.31,2013-03-27 12:05:00,
2013-03-27 08:10:00,38.8,25.3,29.99,WNW,294,9.0,25.0,58,0.00,CLR,CLR,0.00,WeatherDisplay:10.31,2013-03-27 12:10:00,
2013-03-27 08:20:00,39.1,25.1,30.00,WNW,298,15.0,25.0,57,0.00,CLR,CLR,0.00,WeatherDisplay:10.31,2013-03-27 12:20:00,
2013-03-27 08:30:00,39.5,25.5,30.00,WNW,298,12.0,20.0,57,0.00,CLR,CLR,0.00,WeatherDisplay:10.31,2013-03-27 12:30:00,
2013-03-27 08:35:00,39.8,25.4,30.00,WNW,298,5.0,16.0,56,0.00,CLR,CLR,0.00,WeatherDisplay:10.31,2013-03-27 12:35:00,
2013-03-27 08:40:00,40.1,25.6,30.00,WNW,296,10.0,21.0,56,0.00,CLR,CLR,0.00,WeatherDisplay:10.31,2013-03-27 12:40:00,
2013-03-27 08:45:00,40.3,25.4,30.00,WNW,292,13.0,21.0,55,0.00,CLR,CLR,0.00,WeatherDisplay:10.31,2013-03-27 12:45:00,
2013-03-27 08:55:00,40.8,25.5,30.00,WNW,293,16.0,24.0,54,0.00,CLR,CLR,0.00,WeatherDisplay:10.31,2013-03-27 12:55:00,
2013-03-27 09:00:00,41.1,25.3,30.00,WNW,298,8.0,24.0,53,0.00,CLR,CLR,0.00,WeatherDisplay:10.31,2013-03-27 13:00:00,
2013-03-27 09:05:00,41.3,25.4,30.00,WNW,298,8.0,21.0,53,0.00,CLR,CLR,0.00,WeatherDisplay:10.31,2013-03-27 13:05:00,
2013-03-27 09:10:00,41.6,25.3,30.01,WNW,287,9.0,23.0,52,0.00,CLR,CLR,0.00,WeatherDisplay:10.31,2013-03-27 13:10:00,
2013-03-27 09:20:00,42.1,25.7,30.01,WNW,296,12.0,20.0,52,0.00,CLR,CLR,0.00,WeatherDisplay:10.31,2013-03-27 13:20:00,
2013-03-27 09:30:00,42.5,25.6,30.01,WNW,301,9.0,18.0,51,0.00,CLR,CLR,0.00,WeatherDisplay:10.31,2013-03-27 13:30:00,
2013-03-27 09:40:00,42.9,26.0,30.01,WNW,297,12.0,21.0,51,0.00,CLR,CLR,0.00,WeatherDisplay:10.31,2013-03-27 13:40:00,
2013-03-27 09:50:00,43.5,26.1,30.01,WNW,292,8.0,16.0,50,0.00,CLR,CLR,0.00,WeatherDisplay:10.31,2013-03-27 13:50:00,
2013-03-27 10:00:00,44.2,25.7,30.01,WNW,292,10.0,20.0,48,0.00,CLR,CLR,0.00,WeatherDisplay:10.31,2013-03-27 14:00:00,
2013-03-27 10:05:00,44.5,25.5,30.01,WNW,300,13.0,20.0,47,0.00,CLR,CLR,0.00,WeatherDisplay:10.31,2013-03-27 14:05:00,
2013-03-27 10:10:00,44.5,25.5,30.01,WNW,296,17.0,25.0,47,0.00,CLR,CLR,0.00,WeatherDisplay:10.31,2013-03-27 14:10:00,
2013-03-27 10:15:00,44.6,25.1,30.01,WNW,297,13.0,25.0,46,0.00,CLR,CLR,0.00,WeatherDisplay:10.31,2013-03-27 14:15:00,
2013-03-27 10:20:00,44.9,25.9,30.01,WNW,299,10.0,22.0,47,0.00,CLR,CLR,0.00,WeatherDisplay:10.31,2013-03-27 14:20:00,
2013-03-27 10:30:00,45.4,25.8,30.01,WNW,291,12.0,20.0,46,0.00,CLR,CLR,0.00,WeatherDisplay:10.31,2013-03-27 14:30:00,
2013-03-27 10:35:00,45.7,25.5,30.01,WNW,291,10.0,23.0,45,0.00,BKN,BKN,0.00,WeatherDisplay:10.31,2013-03-27 14:35:00,
2013-03-27 10:40:00,45.5,24.8,30.01,WNW,300,10.0,21.0,44,0.00,OVC,OVC,0.00,WeatherDisplay:10.31,2013-03-27 14:40:00,
2013-03-27 10:50:00,44.9,24.8,30.01,WNW,286,6.0,21.0,45,0.00,OVC,OVC,0.00,WeatherDisplay:10.31,2013-03-27 14:50:00,
2013-03-27 11:00:00,45.4,26.3,30.01,WNW,292,17.0,21.0,47,0.00,CLR,CLR,0.00,WeatherDisplay:10.31,2013-03-27 15:00:00,
2013-03-27 11:05:00,45.8,26.2,30.01,WNW,294,6.0,18.0,46,0.00,CLR,CLR,0.00,WeatherDisplay:10.31,2013-03-27 15:05:00,
2013-03-27 11:10:00,46.4,26.2,30.01,WNW,302,20.0,25.0,45,0.00,CLR,CLR,0.00,WeatherDisplay:10.31,2013-03-27 15:10:00,
2013-03-27 11:20:00,46.9,25.5,30.01,WNW,303,13.0,24.0,43,0.00,CLR,CLR,0.00,WeatherDisplay:10.31,2013-03-27 15:20:00,
2013-03-27 11:30:00,47.4,26.6,30.01,WNW,300,10.0,18.0,44,0.00,CLR,CLR,0.00,WeatherDisplay:10.31,2013-03-27 15:30:00,
2013-03-27 11:40:00,48.0,25.9,30.01,WNW,295,8.0,24.0,42,0.00,BKN,BKN,0.00,WeatherDisplay:10.31,2013-03-27 15:40:00,
2013-03-27 11:50:00,47.4,26.6,30.01,WNW,303,14.0,26.0,44,0.00,CLR,CLR,0.00,WeatherDisplay:10.31,2013-03-27 15:50:00,
2013-03-27 12:00:00,48.2,25.0,30.01,NW,310,12.0,21.0,40,0.00,FEW,FEW,0.00,WeatherDisplay:10.31,2013-03-27 16:00:00,
2013-03-27 12:05:00,47.9,24.7,30.01,NW,314,12.0,23.0,40,0.00,CLR,CLR,0.00,WeatherDisplay:10.31,2013-03-27 16:05:00,
2013-03-27 12:10:00,48.4,24.5,30.01,NW,308,15.0,25.0,39,0.00,CLR,CLR,0.00,WeatherDisplay:10.31,2013-03-27 16:10:00,
2013-03-27 12:20:00,49.2,25.9,30.00,NW,313,12.0,20.0,40,0.00,CLR,CLR,0.00,WeatherDisplay:10.31,2013-03-27 16:20:00,
2013-03-27 12:30:00,50.1,24.8,30.00,NW,307,14.0,25.0,37,0.00,CLR,CLR,0.00,WeatherDisplay:10.31,2013-03-27 16:30:00,
2013-03-27 12:40:00,49.6,24.4,30.00,WNW,293,10.0,25.0,37,0.00,FEW,FEW,0.00,WeatherDisplay:10.31,2013-03-27 16:40:00,
2013-03-27 12:50:00,49.5,24.9,30.00,WNW,300,13.0,20.0,38,0.00,BKN,BKN,0.00,WeatherDisplay:10.31,2013-03-27 16:50:00,
2013-03-27 13:00:00,50.3,26.3,30.00,WNW,283,5.0,14.0,39,0.00,CLR,CLR,0.00,WeatherDisplay:10.31,2013-03-27 17:00:00,
2013-03-27 13:05:00,51.0,24.3,30.00,West,279,15.0,21.0,35,0.00,OVC,OVC,0.00,WeatherDisplay:10.31,2013-03-27 17:05:00,
2013-03-27 13:10:00,51.0,23.6,30.00,WNW,287,14.0,22.0,34,0.00,CLR,CLR,0.00,WeatherDisplay:10.31,2013-03-27 17:10:00,
2013-03-27 13:20:00,50.7,24.0,30.00,WNW,286,16.0,24.0,35,0.00,BKN,BKN,0.00,WeatherDisplay:10.31,2013-03-27 17:20:00,
2013-03-27 13:30:00,50.1,24.2,30.00,WNW,293,16.0,21.0,36,0.00,OVC,OVC,0.00,WeatherDisplay:10.31,2013-03-27 17:30:00,
2013-03-27 13:40:00,50.2,24.2,30.00,WNW,287,10.0,22.0,36,0.00,OVC,OVC,0.00,WeatherDisplay:10.31,2013-03-27 17:40:00,
2013-03-27 13:50:00,49.5,24.3,30.00,WNW,283,9.0,17.0,37,0.00,OVC,OVC,0.00,WeatherDisplay:10.31,2013-03-27 17:50:00,
2013-03-27 14:00:00,49.1,23.3,30.00,NW,310,9.0,26.0,36,0.00,OVC,OVC,0.00,WeatherDisplay:10.31,2013-03-27 18:00:00,
2013-03-27 14:05:00,49.1,23.9,30.00,NW,308,9.0,16.0,37,0.00,CLR,CLR,0.00,WeatherDisplay:10.31,2013-03-27 18:05:00,
2013-03-27 14:10:00,49.5,24.3,30.00,West,278,15.0,26.0,37,0.00,CLR,CLR,0.00,WeatherDisplay:10.31,2013-03-27 18:10:00,
2013-03-27 14:20:00,51.6,24.8,29.99,West,271,5.0,17.0,35,0.00,CLR,CLR,0.00,WeatherDisplay:10.31,2013-03-27 18:20:00,
2013-03-27 14:30:00,52.2,24.6,29.99,West,278,12.0,21.0,34,0.00,BKN,BKN,0.00,WeatherDisplay:10.31,2013-03-27 18:30:00,
2013-03-27 14:40:00,51.6,21.9,29.99,WNW,295,12.0,21.0,31,0.00,OVC,OVC,0.00,WeatherDisplay:10.31,2013-03-27 18:40:00,
2013-03-27 14:50:00,50.2,24.9,29.99,West,279,12.0,20.0,37,0.00,CLR,CLR,0.00,WeatherDisplay:10.31,2013-03-27 18:50:00,
2013-03-27 15:00:00,50.5,25.8,30.00,WNW,292,12.0,20.0,38,0.00,OVC,OVC,0.00,WeatherDisplay:10.31,2013-03-27 19:00:00,
2013-03-27 15:05:00,49.8,24.5,29.99,WNW,301,10.0,17.0,37,0.00,OVC,OVC,0.00,WeatherDisplay:10.31,2013-03-27 19:05:00,
2013-03-27 15:10:00,49.2,23.4,29.99,WNW,303,5.0,21.0,36,0.00,OVC,OVC,0.00,WeatherDisplay:10.31,2013-03-27 19:10:00,
2013-03-27 15:20:00,50.9,23.5,29.99,WNW,289,7.0,16.0,34,0.00,OVC,OVC,0.00,WeatherDisplay:10.31,2013-03-27 19:20:00,
2013-03-27 15:30:00,50.5,25.2,29.99,WNW,290,14.0,24.0,37,0.00,OVC,OVC,0.00,WeatherDisplay:10.31,2013-03-27 19:30:00,
2013-03-27 15:40:00,49.5,24.3,29.99,WNW,286,14.0,26.0,37,0.00,CLR,CLR,0.00,WeatherDisplay:10.31,2013-03-27 19:40:00,
2013-03-27 15:50:00,48.6,24.7,30.00,West,268,15.0,25.0,39,0.00,BKN,BKN,0.00,WeatherDisplay:10.31,2013-03-27 19:50:00,
2013-03-27 16:00:00,48.3,25.1,29.99,WNW,282,17.0,22.0,40,0.00,FEW,FEW,0.00,WeatherDisplay:10.31,2013-03-27 20:00:00,
2013-03-27 16:05:00,48.8,23.7,29.99,West,281,12.0,28.0,37,0.00,SCT,SCT,0.00,WeatherDisplay:10.31,2013-03-27 20:05:00,
2013-03-27 16:10:00,49.7,25.7,29.99,West,280,8.0,23.0,39,0.00,SCT,SCT,0.00,WeatherDisplay:10.31,2013-03-27 20:10:00,
2013-03-27 16:15:00,50.1,23.5,29.99,WNW,287,8.0,24.0,35,0.00,BKN,BKN,0.00,WeatherDisplay:10.31,2013-03-27 20:15:00,
2013-03-27 16:20:00,49.8,24.5,29.99,WNW,283,9.0,26.0,37,0.00,OVC,OVC,0.00,WeatherDisplay:10.31,2013-03-27 20:20:00,
2013-03-27 16:30:00,48.8,25.5,29.99,WNW,284,14.0,20.0,40,0.00,OVC,OVC,0.00,WeatherDisplay:10.31,2013-03-27 20:30:00,
2013-03-27 16:40:00,48.8,25.5,29.98,West,281,12.0,17.0,40,0.00,OVC,OVC,0.00,WeatherDisplay:10.31,2013-03-27 20:40:00,
2013-03-27 16:50:00,48.9,25.0,29.99,WNW,283,9.0,17.0,39,0.00,OVC,OVC,0.00,WeatherDisplay:10.31,2013-03-27 20:50:00,
2013-03-27 16:55:00,48.8,24.9,29.99,WNW,290,8.0,18.0,39,0.00,OVC,OVC,0.00,WeatherDisplay:10.31,2013-03-27 20:55:00,
2013-03-27 17:05:00,48.3,24.5,29.99,West,281,3.0,17.0,39,0.00,OVC,OVC,0.00,WeatherDisplay:10.31,2013-03-27 21:05:00,
2013-03-27 17:10:00,48.2,25.0,29.99,WNW,285,7.0,13.0,40,0.00,OVC,OVC,0.00,WeatherDisplay:10.31,2013-03-27 21:10:00,
2013-03-27 17:20:00,48.0,23.6,29.99,WNW,299,9.0,18.0,38,0.00,OVC,OVC,0.00,WeatherDisplay:10.31,2013-03-27 21:20:00,
2013-03-27 17:30:00,47.7,23.9,30.00,WNW,292,10.0,24.0,39,0.00,OVC,OVC,0.00,WeatherDisplay:10.31,2013-03-27 21:30:00,
2013-03-27 17:40:00,47.3,24.2,30.00,WNW,293,12.0,20.0,40,0.00,OVC,OVC,0.00,WeatherDisplay:10.31,2013-03-27 21:40:00,
2013-03-27 17:45:00,47.1,22.1,30.00,WNW,294,10.0,26.0,37,0.00,OVC,OVC,0.00,WeatherDisplay:10.31,2013-03-27 21:45:00,
2013-03-27 17:50:00,47.1,22.1,30.00,WNW,294,10.0,20.0,37,0.00,BKN,BKN,0.00,WeatherDisplay:10.31,2013-03-27 21:50:00,
2013-03-27 18:00:00,47.1,21.5,30.00,WNW,295,12.0,22.0,36,0.00,OVC,OVC,0.00,WeatherDisplay:10.31,2013-03-27 22:00:00,
2013-03-27 18:10:00,47.3,22.3,30.00,WNW,298,8.0,20.0,37,0.00,OVC,OVC,0.00,WeatherDisplay:10.31,2013-03-27 22:10:00,
2013-03-27 18:20:00,47.1,22.1,30.01,WNW,300,7.0,14.0,37,0.00,SCT,SCT,0.00,WeatherDisplay:10.31,2013-03-27 22:20:00,
2013-03-27 18:30:00,47.5,21.8,30.01,WNW,298,3.0,12.0,36,0.00,BKN,BKN,0.00,WeatherDisplay:10.31,2013-03-27 22:30:00,
2013-03-27 18:40:00,48.3,21.2,30.02,WNW,303,13.0,17.0,34,0.00,SCT,SCT,0.00,WeatherDisplay:10.31,2013-03-27 22:40:00,
2013-03-27 18:50:00,47.9,21.5,30.02,WNW,297,6.0,18.0,35,0.00,BKN,BKN,0.00,WeatherDisplay:10.31,2013-03-27 22:50:00,
2013-03-27 19:00:00,47.2,22.2,30.02,WNW,284,13.0,16.0,37,0.00,FEW,FEW,0.00,WeatherDisplay:10.31,2013-03-27 23:00:00,
2013-03-27 19:05:00,46.8,22.5,30.02,West,275,10.0,20.0,38,0.00,BKN,BKN,0.00,WeatherDisplay:10.31,2013-03-27 23:05:00,
2013-03-27 19:10:00,46.5,22.8,30.02,West,278,12.0,18.0,39,0.00,BKN,BKN,0.00,WeatherDisplay:10.31,2013-03-27 23:10:00,
2013-03-27 19:20:00,46.0,23.0,30.02,West,275,6.0,14.0,40,0.00,BKN,BKN,0.00,WeatherDisplay:10.31,2013-03-27 23:20:00,
2013-03-27 19:30:00,45.5,23.1,30.03,West,276,7.0,17.0,41,0.00,OVC,OVC,0.00,WeatherDisplay:10.31,2013-03-27 23:30:00,
2013-03-27 19:40:00,45.2,23.4,30.03,West,273,13.0,17.0,42,0.00,OVC,OVC,0.00,WeatherDisplay:10.31,2013-03-27 23:40:00,
2013-03-27 19:50:00,44.9,23.7,30.03,WNW,288,12.0,18.0,43,0.00,OVC,OVC,0.00,WeatherDisplay:10.31,2013-03-27 23:50:00,
2013-03-27 20:00:00,44.8,23.6,30.03,WNW,291,9.0,18.0,43,0.00,OVC,OVC,0.00,WeatherDisplay:10.31,2013-03-28 00:00:00,
2013-03-27 20:05:00,44.6,23.5,30.03,WNW,292,10.0,17.0,43,0.00,OVC,OVC,0.00,WeatherDisplay:10.31,2013-03-28 00:05:00,
2013-03-27 20:10:00,44.5,23.4,30.04,WNW,289,8.0,14.0,43,0.00,OVC,OVC,0.00,WeatherDisplay:10.31,2013-03-28 00:10:00,
2013-03-27 20:20:00,44.3,23.7,30.03,West,279,7.0,16.0,44,0.00,OVC,OVC,0.00,WeatherDisplay:10.31,2013-03-28 00:20:00,
2013-03-27 20:30:00,44.1,23.6,30.04,West,271,8.0,16.0,44,0.00,OVC,OVC,0.00,WeatherDisplay:10.31,2013-03-28 00:30:00,
2013-03-27 20:40:00,43.8,23.8,30.04,West,279,6.0,14.0,45,0.00,OVC,OVC,0.00,WeatherDisplay:10.31,2013-03-28 00:40:00,
2013-03-27 20:50:00,43.5,23.6,30.05,West,273,5.0,12.0,45,0.00,OVC,OVC,0.00,WeatherDisplay:10.31,2013-03-28 00:50:00,
2013-03-27 21:00:00,43.3,23.9,30.05,West,273,7.0,13.0,46,0.00,OVC,OVC,0.00,WeatherDisplay:10.31,2013-03-28 01:00:00,
2013-03-27 21:05:00,43.2,23.8,30.05,West,280,8.0,14.0,46,0.00,OVC,OVC,0.00,WeatherDisplay:10.31,2013-03-28 01:05:00,
2013-03-27 21:10:00,43.1,23.7,30.05,West,280,7.0,13.0,46,0.00,OVC,OVC,0.00,WeatherDisplay:10.31,2013-03-28 01:10:00,
2013-03-27 21:20:00,42.8,24.4,30.05,West,264,9.0,14.0,48,0.00,OVC,OVC,0.00,WeatherDisplay:10.31,2013-03-28 01:20:00,
2013-03-27 21:30:00,42.6,24.3,30.06,West,277,2.0,16.0,48,0.00,OVC,OVC,0.00,WeatherDisplay:10.31,2013-03-28 01:30:00,
2013-03-27 21:35:00,42.5,24.7,30.06,West,275,8.0,14.0,49,0.00,OVC,OVC,0.00,WeatherDisplay:10.31,2013-03-28 01:35:00,
2013-03-27 21:40:00,42.3,24.5,30.06,West,276,10.0,14.0,49,0.00,OVC,OVC,0.00,WeatherDisplay:10.31,2013-03-28 01:40:00,
2013-03-27 21:50:00,42.2,24.4,30.06,West,274,9.0,17.0,49,0.00,OVC,OVC,0.00,WeatherDisplay:10.31,2013-03-28 01:50:00,
2013-03-27 22:00:00,42.1,24.8,30.06,West,280,9.0,17.0,50,0.00,OVC,OVC,0.00,WeatherDisplay:10.31,2013-03-28 02:00:00,
2013-03-27 22:10:00,41.9,24.6,30.06,West,272,9.0,14.0,50,0.00,OVC,OVC,0.00,WeatherDisplay:10.31,2013-03-28 02:10:00,
2013-03-27 22:20:00,41.8,24.0,30.06,West,272,7.0,12.0,49,0.00,OVC,OVC,0.00,WeatherDisplay:10.31,2013-03-28 02:20:00,
2013-03-27 22:30:00,41.5,24.7,30.06,WNW,285,7.0,14.0,51,0.00,OVC,OVC,0.00,WeatherDisplay:10.31,2013-03-28 02:30:00,
2013-03-27 22:40:00,41.3,25.0,30.06,West,264,5.0,12.0,52,0.00,OVC,OVC,0.00,WeatherDisplay:10.31,2013-03-28 02:40:00,
2013-03-27 22:50:00,41.1,25.3,30.06,WNW,282,6.0,12.0,53,0.00,OVC,OVC,0.00,WeatherDisplay:10.31,2013-03-28 02:50:00,
2013-03-27 23:00:00,40.9,25.1,30.06,WNW,282,8.0,18.0,53,0.00,OVC,OVC,0.00,WeatherDisplay:10.31,2013-03-28 03:00:00,
2013-03-27 23:05:00,40.9,25.1,30.06,WNW,289,7.0,17.0,53,0.00,OVC,OVC,0.00,WeatherDisplay:10.31,2013-03-28 03:05:00,
2013-03-27 23:10:00,40.8,25.0,30.06,WNW,286,10.0,14.0,53,0.00,OVC,OVC,0.00,WeatherDisplay:10.31,2013-03-28 03:10:00,
2013-03-27 23:20:00,40.7,24.9,30.06,WNW,289,5.0,12.0,53,0.00,OVC,OVC,0.00,WeatherDisplay:10.31,2013-03-28 03:20:00,
2013-03-27 23:25:00,40.6,24.8,30.06,WNW,285,6.0,14.0,53,0.00,OVC,OVC,0.00,WeatherDisplay:10.31,2013-03-28 03:25:00,
2013-03-27 23:30:00,40.6,24.8,30.06,WNW,287,7.0,10.0,53,0.00,OVC,OVC,0.00,WeatherDisplay:10.31,2013-03-28 03:30:00,
2013-03-27 23:40:00,40.5,25.1,30.06,WNW,289,5.0,15.0,54,0.00,OVC,OVC,0.00,WeatherDisplay:10.31,2013-03-28 03:40:00,
2013-03-27 23:50:00,40.2,24.9,30.06,WNW,289,3.0,13.0,54,0.00,OVC,OVC,0.00,WeatherDisplay:10.31,2013-03-28 03:50:00,